Simultaneous Nadir Overpasses (SNOs) Predictions

Prediction of SNOs near equator between AQUA and NPP Satellite Orbit:

Table of predicted SNOs near equator for the next 14.0 days since TLE Epoch: 5/29/2020
Index Date (AQUA) Time (AQUA) AQUA Lat,Lon Date (NPP) Time (NPP) NPP Lat,Lon Distance(km) Time Diff (sec)
1 06/01/2020 08:41:51 -4.16,-107.13 06/01/2020 08:32:25 -4.09,-107.53 44.39 566
2 06/01/2020 09:30:07 -0.39, 61.45 06/01/2020 09:21:56 -0.51, 60.80 74.18 491
3 06/04/2020 00:16:06 29.96,-164.84 06/04/2020 00:06:06 30.33,-165.45 71.03 600
4 06/04/2020 00:57:57 -2.75, 9.04 06/04/2020 00:48:55 -2.65, 8.57 53.79 542
5 06/04/2020 01:46:13 -1.80, 177.63 06/04/2020 01:38:26 -1.95, 176.89 83.50 467
6 06/06/2020 16:25:54 5.82, -43.39 06/06/2020 16:16:01 5.78, -43.69 33.12 593
7 06/06/2020 17:14:01 -1.28, 125.23 06/06/2020 17:05:23 -1.15, 124.68 63.19 518
8 06/06/2020 18:02:17 -3.26, -66.18 06/06/2020 17:54:54 -3.45, -66.99 92.75 443
9 06/09/2020 08:41:59 4.36, 72.80 06/09/2020 08:32:30 4.28, 72.43 42.45 569
10 06/09/2020 09:30:05 0.24,-118.56 06/09/2020 09:21:52 0.35,-119.21 72.57 493
11 06/12/2020 00:16:02 -29.94, 15.17 06/12/2020 00:06:02 -30.45, 14.54 82.81 600
12 06/12/2020 00:58:04 2.92,-171.01 06/12/2020 00:48:59 2.79,-171.46 51.99 545
13 06/12/2020 01:46:10 1.69, -2.38 06/12/2020 01:38:21 1.84, -3.10 81.84 469




NCC Satellite Simultaneous Nadir Overpasses (SNOs) Prediction Service
